Flag for USA Past Weather in Bryan – College Station, Texas, USA — Yesterday and Last 2 Weeks

Now
74 °F

Clear.


Feels Like: 72 °F
Forecast: 73 / 85 °F
Wind: 6 mph from Southeast

Location: Easterwood Field

Current Time: May 24, 2016 at 1:17:18 AM

Latest Report: May 23, 2016 at 11:53 PM


Visibility: 10 mi

Pressure: 29.91 "Hg

Humidity: 91%

Dew Point: 71 °F

Location of Bryan – College StationLocation

Past Weather in Bryan – College Station — Graph

°F

Bryan – College Station Temperature Yesterday

Maximum temperature yesterday: 83 °F (at 12:53 PM)
Minimum temperature yesterday: 70 °F (at 4:53 AM)
Average temperature yesterday: 76 °F

High & Low Weather Summary for the Past Weeks

 TemperatureHumidityPressure
High88 °F (May 10, 1:53 PM)100% (May 14, 7:53 PM)30.16 "Hg (May 14, 7:53 PM)
Low61 °F (May 19, 12:53 PM)49% (May 12, 5:53 PM)29.72 "Hg (May 9, 4:53 PM)
Average74 °F82%29.96 "Hg
* Reported May 8 11:53 PM — May 23 11:53 PM, Bryan – College Station, Weather by CustomWeather, © 2016

Note: Actual official high and low records may vary slightly from our data, if they occured in-between our weather recording intervals... More about our weather records

Advertising

Bryan – College Station Weather History for the Previous 24 Hours

Scroll right to see more
 ConditionsComfort  
Time TempWeatherWind HumidityBarometerVisibility
11:53 PM
Mon, May 23
74 °FClear.6 mph91%29.91 "Hg10 mi
10:53 PM75 °FClear.7 mph90%29.91 "Hg10 mi
9:53 PM76 °FClear.10 mph88%29.88 "Hg10 mi
8:53 PM77 °FSunny.12 mph85%29.85 "Hg10 mi
7:53 PM80 °FPartly sunny.15 mph76%29.83 "Hg10 mi
6:53 PM81 °FOvercast.9 mph72%29.83 "Hg10 mi
5:53 PM82 °FOvercast.10 mph72%29.83 "Hg10 mi
4:53 PM82 °FOvercast.8 mph72%29.85 "Hg10 mi
3:53 PM82 °FMostly cloudy.7 mph70%29.86 "Hg10 mi
2:53 PM82 °FOvercast.10 mph67%29.89 "Hg10 mi
1:53 PM82 °FMore clouds than sun.9 mph67%29.90 "Hg10 mi
12:53 PM83 °FMore clouds than sun.9 mph68%29.91 "Hg10 mi
11:53 AM80 °FCloudy.13 mph71%29.93 "Hg10 mi
10:53 AM78 °FMore clouds than sun.13 mph76%29.92 "Hg10 mi
9:53 AM75 °FMostly cloudy.9 mph88%29.93 "Hg10 mi
8:53 AM73 °FLow clouds.9 mph94%29.92 "Hg10 mi
7:53 AM72 °FLow clouds.7 mph97%29.90 "Hg9 mi
6:53 AM71 °FLow clouds.12 mph96%29.89 "Hg7 mi
5:53 AM70 °FLow clouds.6 mph100%29.88 "Hg7 mi
4:53 AM70 °FClear.3 mph100%29.88 "Hg8 mi
4:01 AM71 °FPassing clouds.6 mph96%29.89 "Hg9 mi
2:53 AM71 °FClear.6 mph93%29.90 "Hg10 mi
1:53 AM72 °FClear.3 mph91%29.92 "Hg10 mi
Weather by CustomWeather, © 2016

See weather overviewHow to use our weather pages